This is the latest recevied weather packets stored in our database for station/object W4GAP. If no packets are shown the sender has not sent any weather packets the latest 10 day(s).
| Time | Temp. | Humidity | Pressure | Rain* | Wind** | Luminosity | Snow |
|---|---|---|---|---|---|---|---|
| 1777837155 | 20.56° C | 37% | 1015.4 hPa | 0 mm | - | 33 W/m² | - |
| 1777836850 | 20° C | 38% | 1015.6 hPa | 0 mm | - | 55 W/m² | - |
| 1777836546 | 19.44° C | 39% | 1015.8 hPa | 0 mm | - | 86 W/m² | - |
| 1777836243 | 20° C | 37% | 1015.8 hPa | 0 mm | - | 241 W/m² | - |
| 1777835939 | 20.56° C | 37% | 1015.8 hPa | 0 mm | - | 294 W/m² | - |
| 1777835636 | 20.56° C | 36% | 1016 hPa | 0 mm | - | 197 W/m² | - |
| 1777835332 | 20.56° C | 37% | 1016 hPa | 0 mm | - | 316 W/m² | - |
| 1777835030 | 20.56° C | 36% | 1016.1 hPa | 0 mm | - | 364 W/m² | - |
| 1777834726 | 20° C | 39% | 1016.2 hPa | 0 mm | - | 458 W/m² | - |
| 1777834422 | 20.56° C | 38% | 1016.3 hPa | 0 mm | - | 301 W/m² | - |
| 1777834117 | 20.56° C | 40% | 1016.2 hPa | 0 mm | - | 703 W/m² | - |
| 1777833813 | 20° C | 39% | 1016.2 hPa | 0 mm | - | 716 W/m² | - |
| 1777833509 | 20.56° C | 41% | 1016.3 hPa | 0 mm | - | 716 W/m² | - |
| 1777833206 | 20° C | 40% | 1016.6 hPa | 0 mm | - | 708 W/m² | - |
| 1777832904 | 20.56° C | 36% | 1016.4 hPa | 0 mm | - | 730 W/m² | - |
| 1777832603 | 20.56° C | 38% | 1016.7 hPa | 0 mm | - | 704 W/m² | - |
| 1777832300 | 20° C | 36% | 1016.6 hPa | 0 mm | - | 698 W/m² | - |
| 1777831997 | 20° C | 36% | 1016.5 hPa | 0 mm | - | 677 W/m² | - |
| 1777831693 | 20° C | 39% | 1016.6 hPa | 0 mm | - | 729 W/m² | - |
| 1777831391 | 19.44° C | 40% | 1016.5 hPa | 0 mm | - | 625 W/m² | - |
| 1777831087 | 18.89° C | 41% | 1016.4 hPa | 0 mm | - | 246 W/m² | - |
| 1777830786 | 18.89° C | 40% | 1016.6 hPa | 0 mm | - | 308 W/m² | - |
| 1777830481 | 19.44° C | 41% | 1016.9 hPa | 0 mm | - | 124 W/m² | - |
| 1777830179 | 19.44° C | 42% | 1016.6 hPa | 0 mm | - | 67 W/m² | - |
| 1777829874 | 18.89° C | 41% | 1017 hPa | 0 mm | - | 212 W/m² | - |
* Rain latest hour (hover to see other rain measurements)
** Current wind speed in m/s (hover to see current wind gust speed)